EW7446 Weather Reports


time (UTC)temp
F
wind
direction
speed
knots
gust
knots
rain 1hr
in
rain 24hr
in
rain mn
in
humidity
%
barometer
mb
20260508002601 74 231 2.6 6.1 0.00 0.00 0.00 71 1014.5
20260508002055 75 215 3.5 9.6 0.00 0.00 0.00 69 1014.7
20260508001820 74 170 3.5 9.6 0.00 0.00 0.00 69 1014.6
20260508001048 75 216 5.2 7.0 0.00 0.00 0.00 69 1014.8
20260508000548 75 208 0.9 7.0 0.00 0.00 0.00 69 1014.7
20260508000048 75 196 1.7 7.0 0.00 0.00 0.00 69 1014.7
20260507235548 74 195 2.6 7.0 0.00 0.00 0.00 70 1014.5
20260507235048 74 171 4.3 7.0 0.00 0.00 0.00 70 1014.8
20260507234542 75 181 5.2 7.8 0.00 0.00 0.00 69 1014.6
20260507234036 74 203 0.0 7.8 0.00 0.00 0.00 70 1014.8
20260507233536 74 120 4.3 7.8 0.00 0.00 0.00 69 1014.8
20260507233036 75 193 4.3 7.0 0.00 0.00 0.00 69 1014.6
20260507232807 74 187 1.7 7.0 0.00 0.00 0.00 69 1014.8
20260507232036 75 196 1.7 7.0 0.00 0.00 0.00 68 1014.8
20260507231536 74 209 1.7 7.0 0.00 0.00 0.00 70 1014.8
20260507231036 75 199 2.6 7.8 0.00 0.00 0.00 69 1014.8
20260507230808 74 210 1.7 7.8 0.00 0.00 0.00 70 1014.7
20260507230036 73 209 3.5 7.8 0.00 0.00 0.00 71 1014.8
20260507225536 73 197 1.7 7.8 0.00 0.00 0.00 71 1015.0
20260507225036 73 210 4.3 7.8 0.00 0.00 0.00 72 1015.1
20260507224536 73 176 4.3 9.6 0.00 0.00 0.00 72 1014.8
20260507224036 72 202 3.5 9.6 0.00 0.00 0.00 72 1015.1
20260507223537 73 200 1.7 8.7 0.00 0.00 0.00 72 1015.1
20260507223031 73 212 7.0 8.7 0.00 0.00 0.00 72 1015.2
20260507222524 73 202 3.5 8.7 0.00 0.00 0.00 72 1015.3
20260507222024 73 207 5.2 8.7 0.00 0.00 0.00 71 1015.4
20260507221518 74 233 4.3 7.8 0.00 0.00 0.00 71 1015.2
20260507221012 73 234 4.3 7.8 0.00 0.00 0.00 74 1015.5
20260507220512 73 207 2.6 7.0 0.00 0.00 0.00 72 1015.5
20260507220007 72 201 2.6 7.8 0.00 0.00 0.00 74 1015.6
20260507215500 71 187 4.3 7.8 0.00 0.00 0.00 76 1015.9
20260507215000 72 197 5.2 11.3 0.00 0.00 0.00 75 1015.5
20260507214455 71 198 3.5 11.3 0.00 0.00 0.00 76 1015.8
20260507213949 72 216 5.2 7.8 0.00 0.00 0.00 75 1016.0
20260507213448 72 192 6.1 8.7 0.00 0.00 0.00 75 1016.0
20260507212949 72 241 3.5 8.7 0.00 0.00 0.00 75 1015.8
20260507212448 71 189 5.2 8.7 0.00 0.00 0.00 75 1015.8
20260507211949 73 207 4.3 8.7 0.00 0.00 0.00 73 1015.9
20260507211448 72 198 7.0 8.7 0.00 0.00 0.00 74 1016.0
20260507210948 72 238 6.1 8.7 0.00 0.00 0.00 74 1016.1
20260507210448 73 291 3.5 8.7 0.00 0.00 0.00 73 1016.2
20260507205948 71 207 4.3 8.7 0.00 0.00 0.00 75 1016.3
20260507205448 71 243 4.3 8.7 0.00 0.00 0.00 75 1016.2
20260507204942 71 194 2.6 8.7 0.00 0.00 0.00 75 1016.4
20260507204436 71 246 5.2 11.3 0.00 0.00 0.00 75 1016.3
20260507203936 71 233 4.3 11.3 0.00 0.00 0.00 76 1016.4
20260507203436 72 206 2.6 12.2 0.00 0.00 0.00 74 1016.4
20260507202936 71 235 4.3 12.2 0.00 0.00 0.00 75 1016.5
20260507202436 71 216 5.2 8.7 0.00 0.00 0.00 75 1016.3
20260507201936 71 201 7.0 8.7 0.00 0.00 0.00 75 1016.3
20260507201436 71 203 1.7 7.8 0.00 0.00 0.00 76 1016.2
20260507201206 70 226 5.2 7.8 0.00 0.00 0.00 76 1016.9
20260507200437 71 255 4.3 7.8 0.00 0.00 0.00 77 1017.0
20260507195937 70 250 4.3 8.7 0.00 0.00 0.00 77 1017.0
20260507195431 70 207 7.0 9.6 0.00 0.00 0.00 78 1017.0
20260507194925 70 229 4.3 9.6 0.00 0.00 0.00 78 1016.8
20260507194425 70 224 4.3 8.7 0.00 0.00 0.00 77 1016.9
20260507193918 71 210 6.1 7.8 0.00 0.00 0.00 77 1017.0
20260507193412 70 197 3.5 8.7 0.00 0.00 0.00 78 1016.9
20260507192912 71 214 5.2 8.7 0.00 0.00 0.00 77 1017.0
20260507192406 71 227 5.2 8.7 0.00 0.00 0.00 77 1017.0
20260507191900 71 211 3.5 8.7 0.00 0.00 0.00 78 1017.1
20260507191400 70 204 4.3 7.8 0.00 0.00 0.00 77 1017.1
20260507190854 71 185 6.1 7.8 0.00 0.00 0.00 76 1017.3
20260507190348 71 204 3.5 7.8 0.00 0.00 0.00 75 1017.3
20260507185848 70 174 1.7 8.7 0.00 0.00 0.00 77 1017.3
20260507185348 71 231 1.7 8.7 0.00 0.00 0.00 77 1017.4
20260507184848 70 211 3.5 9.6 0.00 0.00 0.00 78 1017.6
20260507184352 71 181 0.9 7.0 0.00 0.00 0.00 76 1017.5
20260507184348 71 217 6.1 8.7 0.00 0.00 0.00 75 1017.2
20260507183348 71 194 3.5 7.0 0.00 0.00 0.00 75 1017.3
20260507182848 70 216 3.5 5.2 0.00 0.00 0.00 77 1017.6
20260507182348 70 216 3.5 5.2 0.00 0.00 0.00 77 1017.4
20260507181848 71 193 4.3 6.1 0.00 0.00 0.00 75 1017.7
20260507181348 71 194 1.7 6.1 0.00 0.00 0.00 76 1017.5
20260507180848 70 194 4.3 7.8 0.00 0.00 0.00 76 1017.6
20260507180349 69 243 3.5 7.8 0.00 0.00 0.00 78 1017.7
20260507175848 70 234 3.5 7.8 0.00 0.00 0.00 77 1017.6
20260507175348 70 213 0.9 7.8 0.00 0.00 0.00 77 1017.9
20260507174849 69 191 4.3 7.8 0.00 0.00 0.00 77 1017.7
20260507174349 69 210 4.3 7.8 0.00 0.00 0.00 77 1017.8
20260507173848 70 195 3.5 7.8 0.00 0.00 0.00 76 1017.5
20260507173348 71 256 2.6 7.0 0.00 0.00 0.00 75 1017.8
20260507173120 70 248 3.5 6.1 0.00 0.00 0.00 76 1017.6
20260507172348 71 251 5.2 6.1 0.00 0.00 0.00 74 1017.7
20260507171848 71 206 2.6 6.1 0.00 0.00 0.00 75 1017.6
20260507171348 70 252 4.3 6.1 0.00 0.00 0.00 77 1017.6
20260507170848 73 173 2.6 5.2 0.00 0.00 0.00 73 1017.6
20260507170619 72 226 1.7 5.2 0.00 0.00 0.00 74 1017.7
20260507170453 73 214 0.0 5.2 0.00 0.00 0.00 72 1017.8
20260507165349 70 239 1.7 5.2 0.00 0.00 0.00 75 1017.7
20260507165120 72 214 0.0 1.7 0.00 0.00 0.00 75 1017.9
20260507164348 70 197 0.0 2.6 0.00 0.00 0.00 77 1017.5
20260507163848 68 203 0.9 3.5 0.00 0.00 0.00 80 1017.6
20260507163342 68 204 0.9 6.1 0.00 0.00 0.00 79 1017.9
20260507162836 69 137 2.6 6.1 0.00 0.00 0.00 79 1017.9
20260507162607 71 216 0.0 2.6 0.00 0.00 0.00 76 1017.9
20260507161836 70 214 0.0 1.7 0.00 0.00 0.00 78 1018.1
20260507161336 70 197 0.0 1.7 0.00 0.00 0.00 77 1017.9
20260507160836 69 173 0.0 1.7 0.00 0.00 0.00 78 1018.1
20260507160336 70 214 0.9 1.7 0.00 0.00 0.00 77 1017.9
20260507155555 68 208 0.0 2.6 0.00 0.00 0.00 80 1018.1
20260507154824 67 221 0.0 2.6 0.00 0.00 0.00 82 1018.0
20260507154550 67 194 0.0 2.6 0.00 0.00 0.00 83 1018.3
20260507153812 68 225 1.7 2.6 0.00 0.00 0.00 82 1018.0
20260507153311 68 215 0.0 1.7 0.00 0.00 0.00 81 1018.3
20260507152811 67 210 0.0 1.7 0.00 0.00 0.00 83 1018.0
20260507152311 67 210 0.0 0.9 0.00 0.00 0.00 83 1018.3
20260507151759 66 198 0.0 1.7 0.00 0.00 0.00 84 1018.2
20260507151525 66 47 0.9 1.7 0.00 0.00 0.00 84 1018.2
20260507150747 65 215 0.0 1.7 0.00 0.00 0.00 86 1018.0
20260507150247 65 193 1.7 1.7 0.00 0.00 0.00 86 1018.3
20260507145748 64 211 0.9 1.7 0.00 0.00 0.00 88 1018.2
20260507145247 65 210 0.9 1.7 0.00 0.00 0.00 86 1018.3
20260507144747 65 233 0.0 1.7 0.00 0.00 0.00 87 1018.1
20260507144248 65 185 0.0 0.9 0.00 0.00 0.00 86 1018.0
20260507144020 64 218 0.0 0.9 0.00 0.00 0.00 88 1018.1
20260507143251 64 234 0.0 0.9 0.00 0.00 0.00 89 1018.2
20260507143247 64 234 0.0 0.9 0.00 0.00 0.00 88 1018.0
20260507142248 63 235 0.0 0.0 0.00 0.00 0.00 90 1018.0
20260507141747 63 235 0.0 0.0 0.00 0.00 0.00 92 1017.9
20260507141247 62 235 0.0 0.0 0.00 0.00 0.00 95 1018.0
20260507141018 60 235 0.0 0.0 0.00 0.00 0.00 96 1017.8
20260507140248 60 235 0.0 0.0 0.00 0.00 0.00 97 1017.9
20260507135748 60 235 0.0 0.0 0.00 0.00 0.00 97 1017.6
20260507135247 60 235 0.0 0.0 0.00 0.00 0.00 98 1017.7
20260507134748 59 235 0.0 0.0 0.00 0.00 0.00 99 1017.8
20260507134248 58 235 0.0 0.0 0.00 0.00 0.00 99 1017.7
20260507133747 57 235 0.0 0.0 0.00 0.00 0.00 99 1017.5
20260507133247 56 235 0.0 0.0 0.00 0.00 0.00 99 1017.6
20260507132748 56 235 0.0 0.0 0.00 0.00 0.00 99 1017.6
20260507132235 56 235 0.0 0.0 0.00 0.00 0.00 99 1017.5
20260507131735 55 235 0.0 0.0 0.00 0.00 0.00 99 1017.5
20260507131235 55 235 0.0 0.0 0.00 0.00 0.00 99 1017.5
20260507130735 55 235 0.0 0.0 0.00 0.00 0.00 99 1017.5
20260507130236 55 235 0.0 0.0 0.00 0.00 0.00 99 1017.2
20260507130006 55 235 0.0 0.0 0.00 0.00 0.00 99 1017.2
20260507125506 55 235 0.0 0.0 0.00 0.00 0.00 99 1017.3
20260507124736 55 235 0.0 0.0 0.00 0.00 0.00 99 1017.1
20260507124235 55 235 0.0 0.0 0.00 0.00 0.00 99 1017.2
20260507123735 55 235 0.0 0.0 0.00 0.00 0.00 99 1017.1
20260507123235 55 235 0.0 0.0 0.00 0.00 0.00 99 1017.4
20260507122735 55 235 0.0 0.0 0.00 0.00 0.00 99 1017.4
20260507122506 55 235 0.0 0.0 0.00 0.00 0.00 99 1017.2
20260507121736 55 236 0.0 0.0 0.00 0.00 0.00 99 1017.0
20260507121235 55 233 0.0 0.0 0.00 0.00 0.00 99 1017.2
20260507121006 55 233 0.0 0.0 0.00 0.00 0.00 99 1017.2
20260507120507 56 233 0.0 0.0 0.00 0.00 0.00 99 1017.1
20260507115735 55 234 0.0 0.0 0.00 0.00 0.00 99 1017.2
20260507115224 55 233 0.0 0.0 0.00 0.00 0.00 99 1017.4
20260507114954 55 233 0.0 0.0 0.00 0.00 0.00 99 1017.5
20260507114223 56 233 0.0 0.0 0.00 0.00 0.00 99 1017.4
20260507113711 56 234 0.0 0.0 0.00 0.00 0.00 99 1017.3
20260507112918 56 234 0.0 0.0 0.00 0.00 0.00 99 1017.4
20260507112418 56 233 0.0 0.0 0.00 0.00 0.00 99 1017.5
20260507111648 56 233 0.0 0.0 0.00 0.00 0.00 99 1017.5
20260507111148 56 233 0.0 0.0 0.00 0.00 0.00 99 1017.4
20260507110647 56 234 0.0 0.0 0.00 0.00 0.00 99 1017.5
20260507110135 56 234 0.0 0.0 0.00 0.00 0.00 99 1017.5
20260507105635 56 233 0.0 0.0 0.00 0.00 0.00 99 1017.4
20260507105135 56 233 0.0 0.0 0.00 0.00 0.00 99 1017.4
20260507104636 56 234 0.0 0.0 0.00 0.00 0.00 99 1017.5
20260507104135 56 234 0.0 0.0 0.00 0.00 0.00 99 1017.6
20260507103905 56 234 0.0 0.0 0.00 0.00 0.00 99 1017.6
20260507103135 56 234 0.0 0.0 0.00 0.00 0.00 99 1017.7
20260507102635 56 234 0.0 0.0 0.00 0.00 0.00 99 1017.6
20260507102407 56 234 0.0 0.0 0.00 0.00 0.00 99 1017.7
20260507101906 56 234 0.0 0.0 0.00 0.00 0.00 99 1017.4
20260507101135 57 234 0.0 0.0 0.00 0.00 0.00 99 1017.5
20260507100635 57 233 0.0 0.0 0.00 0.00 0.00 99 1017.7
20260507100135 57 234 0.0 0.0 0.00 0.00 0.00 99 1017.7
20260507095906 56 234 0.0 0.0 0.00 0.00 0.00 99 1017.5
20260507095135 57 234 0.0 0.0 0.00 0.00 0.00 99 1017.8
20260507094636 57 234 0.0 0.0 0.00 0.00 0.00 98 1017.7
20260507094135 57 234 0.0 0.0 0.00 0.00 0.00 98 1017.8
20260507093635 57 233 0.0 0.0 0.00 0.00 0.00 98 1017.8
20260507093405 58 234 0.0 0.0 0.00 0.00 0.00 98 1018.0
20260507092636 58 233 0.0 0.0 0.00 0.00 0.00 98 1018.1
20260507092135 58 234 0.0 0.0 0.00 0.00 0.00 98 1017.8
20260507091636 58 234 0.0 0.0 0.00 0.00 0.00 98 1017.8
20260507091135 58 234 0.0 0.0 0.00 0.00 0.00 98 1017.9
20260507090636 58 233 0.0 0.0 0.00 0.00 0.00 98 1018.2
20260507090135 58 234 0.0 0.0 0.00 0.00 0.00 97 1018.4
20260507085635 58 234 0.0 0.0 0.00 0.00 0.00 97 1018.3
20260507085135 58 234 0.0 0.0 0.00 0.00 0.00 97 1018.2
20260507084623 58 234 0.0 0.0 0.00 0.00 0.00 97 1018.3
20260507084112 58 234 0.0 0.0 0.00 0.00 0.00 97 1018.4
20260507083559 58 234 0.0 0.0 0.00 0.00 0.00 97 1018.4
20260507083047 58 234 0.0 0.0 0.00 0.00 0.00 96 1018.2
20260507082547 58 234 0.0 0.0 0.00 0.00 0.00 96 1018.5
20260507082047 59 234 0.0 0.0 0.00 0.00 0.00 96 1018.6
20260507081817 59 235 0.0 0.0 0.00 0.00 0.00 96 1018.5
20260507081047 59 238 0.0 0.0 0.00 0.00 0.00 96 1018.2
20260507080551 59 234 0.0 1.7 0.00 0.00 0.00 95 1018.4
20260507080547 59 228 0.0 1.7 0.00 0.00 0.00 95 1018.3
20260507075547 59 270 0.0 0.9 0.00 0.00 0.00 95 1018.6
20260507075047 59 228 0.0 0.9 0.00 0.00 0.00 95 1018.5
20260507074547 59 234 0.0 0.9 0.00 0.00 0.00 95 1018.9
20260507074047 59 229 0.0 0.0 0.00 0.00 0.00 95 1018.5
20260507073548 59 233 0.0 0.0 0.00 0.00 0.00 95 1018.7
20260507073048 59 226 0.0 0.9 0.00 0.00 0.00 95 1018.5
20260507072547 59 230 0.0 1.7 0.00 0.00 0.00 94 1019.0
20260507072048 59 242 0.0 1.7 0.00 0.00 0.00 94 1018.8
20260507071818 59 232 0.0 0.0 0.00 0.00 0.00 94 1018.6
20260507071047 59 228 0.0 0.9 0.00 0.00 0.00 94 1018.9
20260507070818 60 239 0.0 0.9 0.00 0.00 0.00 94 1018.9
20260507070048 60 242 0.0 0.9 0.00 0.00 0.00 93 1018.8
20260507065535 60 244 0.0 1.7 0.00 0.00 0.00 93 1018.5
20260507065035 60 229 0.0 1.7 0.00 0.00 0.00 93 1018.6
20260507064535 60 278 0.0 1.7 0.00 0.00 0.00 93 1018.9
20260507064035 60 306 0.0 3.5 0.00 0.00 0.00 92 1018.6
20260507063535 60 236 0.9 3.5 0.00 0.00 0.00 92 1018.6
20260507063035 60 228 0.9 2.6 0.00 0.00 0.00 92 1018.7
20260507062535 60 286 0.9 3.5 0.00 0.00 0.00 91 1018.8
20260507062035 60 324 2.6 3.5 0.00 0.00 0.00 91 1018.8
20260507061536 60 232 0.0 5.2 0.00 0.00 0.00 91 1018.8
20260507061307 60 215 3.5 5.2 0.00 0.00 0.00 90 1018.8
20260507060535 61 202 0.9 5.2 0.00 0.00 0.00 90 1019.0
20260507060035 60 287 1.7 5.2 0.00 0.00 0.00 91 1018.9
20260507055535 61 336 0.9 2.6 0.00 0.00 0.00 91 1018.7
20260507055035 61 261 0.0 6.1 0.00 0.00 0.00 91 1018.8
20260507054535 61 297 0.0 6.1 0.00 0.00 0.00 91 1018.7
20260507054040 61 323 0.9 1.7 0.00 0.00 0.00 91 1018.8
20260507054036 61 247 0.0 1.7 0.00 0.00 0.00 91 1018.8
20260507053306 61 289 1.7 2.6 0.00 0.00 0.00 91 1018.7
20260507052540 61 274 0.0 2.6 0.00 0.00 0.00 90 1018.8
20260507052536 61 234 0.0 2.6 0.00 0.00 0.00 90 1018.7
20260507051536 61 238 0.0 3.5 0.00 0.00 0.00 89 1018.9
20260507051035 61 296 1.7 3.5 0.00 0.00 0.00 89 1018.6
20260507050805 62 294 0.0 2.6 0.00 0.00 0.00 88 1018.7
20260507050033 62 277 0.9 3.5 0.00 0.00 0.00 88 1018.8
20260507045804 62 250 0.0 3.5 0.00 0.00 0.00 88 1018.6
20260507045034 62 261 0.9 3.5 0.00 0.00 0.00 87 1018.7
20260507044533 62 235 0.9 3.5 0.00 0.00 0.00 87 1018.7
20260507044035 62 331 1.7 2.6 0.00 0.00 0.00 87 1018.5
20260507043804 62 235 0.9 3.5 0.00 0.00 0.00 86 1018.5
20260507043041 62 311 0.9 5.2 0.00 0.00 0.00 86 1018.6
20260507042533 62 290 0.9 5.2 0.00 0.00 0.00 86 1018.4
20260507042022 62 263 1.7 3.5 0.00 0.00 0.00 87 1018.5
20260507041522 62 257 0.9 3.5 0.00 0.00 0.00 87 1018.5
20260507041021 62 212 0.9 3.5 0.00 0.00 0.00 87 1018.6
20260507040509 62 257 0.0 5.2 0.00 0.00 0.00 86 1018.3
20260507040009 62 301 1.7 2.6 0.00 0.00 0.00 86 1018.5
20260507035510 63 259 1.7 3.5 0.00 0.00 0.00 86 1018.3
20260507034946 63 213 0.0 5.2 0.00 0.00 0.00 85 1018.3
20260507034717 63 226 1.7 5.2 0.00 0.00 0.00 84 1018.3
20260507033947 63 271 0.9 6.1 0.00 0.00 0.00 82 1018.2
20260507033447 64 205 0.0 6.1 0.00 0.00 0.00 81 1018.2
20260507032946 64 288 3.5 6.1 0.00 0.00 0.00 80 1018.1
20260507032446 64 278 1.7 7.0 0.00 0.00 0.00 79 1018.1
20260507031946 64 306 1.7 7.0 0.00 0.00 0.00 79 1018.1
20260507031447 64 302 3.5 5.2 0.00 0.00 0.00 78 1017.9
20260507030946 64 204 0.0 5.2 0.00 0.00 0.00 78 1017.9
20260507030446 64 202 0.0 3.5 0.00 0.00 0.00 79 1017.8
20260507025934 64 294 2.6 3.5 0.00 0.00 0.00 80 1017.8
20260507025434 64 267 1.7 3.5 0.00 0.00 0.00 79 1017.8
20260507024934 65 229 0.9 7.8 0.00 0.00 0.00 78 1017.6
20260507024706 65 306 0.9 7.8 0.00 0.00 0.00 78 1017.8
20260507023934 65 240 1.7 6.1 0.00 0.00 0.00 77 1017.7
20260507023705 65 329 2.6 6.1 0.00 0.00 0.00 76 1017.5
20260507022934 66 280 1.7 6.1 0.00 0.00 0.00 75 1017.3
20260507022422 66 317 1.7 7.0 0.00 0.00 0.00 74 1017.1
20260507021922 66 284 1.7 7.0 0.00 0.00 0.00 74 1017.6
20260507021423 67 257 1.7 5.2 0.00 0.00 0.00 73 1017.5
20260507020911 67 329 1.7 7.0 0.00 0.00 0.00 73 1017.3
20260507020411 67 314 1.7 7.0 0.00 0.00 0.00 72 1017.3
20260507015910 68 284 0.9 6.1 0.00 0.00 0.00 70 1017.3
20260507015358 68 308 0.9 6.1 0.00 0.00 0.00 71 1017.1
20260507014858 69 219 3.5 6.1 0.00 0.00 0.00 69 1017.3
20260507014358 70 299 0.9 5.2 0.00 0.00 0.00 70 1017.3
20260507013847 70 22 0.9 7.0 0.00 0.00 0.00 69 1017.2
20260507013618 70 306 3.5 7.0 0.00 0.00 0.00 68 1017.0
20260507012846 69 295 1.7 7.0 0.00 0.00 0.00 70 1016.9
20260507012346 70 238 1.7 7.0 0.00 0.00 0.00 70 1017.0
20260507011846 70 200 1.7 7.8 0.00 0.00 0.00 69 1017.0
20260507011346 70 197 1.7 7.8 0.00 0.00 0.00 68 1016.8
20260507011118 71 261 2.6 7.8 0.00 0.00 0.00 69 1017.0
20260507010335 71 322 0.9 5.2 0.00 0.00 0.00 68 1016.9
20260507005835 71 213 0.9 7.0 0.00 0.00 0.00 67 1016.8
20260507005334 71 210 2.6 7.0 0.00 0.00 0.00 67 1016.7
20260507004834 72 259 0.0 5.2 0.00 0.00 0.00 67 1016.6
20260507004335 72 226 0.0 9.6 0.00 0.00 0.00 66 1016.8
20260507004105 72 53 2.6 9.6 0.00 0.00 0.00 67 1016.6
20260507003335 71 347 3.5 9.6 0.00 0.00 0.00 66 1017.0